Weather in Torba

Turkey     37°04′28″N   27°27′25″E
temp.,
°C
wind,
m/s
gust,
m/s
humid.,
%
clouds,
%
prec.,
mm/h
press.,
hPa
HPBL,
m
22 april, thu
thu2200:00+14nw46685 0.0 1020314
03:00+13nnw457238 0.0 1020190
06:00+13nnw45720 0.0 1020168
09:00+15nnw34540 0.0 1021321
12:00+18nnw45465 0.0 1021397
15:00+20wnw674253 0.0 1020577
18:00+19wnw68461 0.0 1020356
21:00+15nw46665 0.0 1021176
23 april, fri
fri2300:00+15nnw33615 0.0 102080
03:00+14nw345621 0.0 1020121
06:00+14nnw3357100 0.0 101988
09:00+17n2248100 0.0 1020146
12:00+20wnw23429 0.0 1020329
15:00+21wnw33410 0.0 1019365
18:00+20nw44475 0.0 1018171
21:00+16nnw336769 0.0 101835
24 april, sat
sat2400:00+17n2265100 0.0 101727
03:00+16nne2264100 0.0 101524
06:00+17ne2259100 0.0 101419
09:00+19n235497 0.0 1015101
12:00+23sse1146100 0.0 1014264
15:00+21wnw5555100 0.0 1013279
18:00+22se2257100 0.0 1011120
21:00+19nne1171100 0.0 101216
25 april, sun
sun2500:00+18sse2270100 0.0 101115
03:00+18ne2269100 0.0 100914
06:00+18nne2267100 0.0 100816
09:00+20nne2263100 0.0 1008116
12:00+22se125362 0.0 1008466
15:00+21wnw326196 0.0 1008576
18:00+19wnw810684 0.3 1007339
21:00+17nw68826 1.1 1008180
26 april, mon
mon2600:00+15nnw57830 0.0 1009211
03:00+14nw68810 0.0 1008239
06:00+13nnw68835 0.0 1008260
09:00+15nnw66720 0.0 1010357
12:00+19nnw57600 0.0 1010386
15:00+21nw810530 0.0 1010370
18:00+20nw913540 0.0 1010388
21:00+17nw69690 0.0 1011194